When you browse on this site, cookies collect data to enhance your experience and personalize the content and advertising you see.
Visit our Privacy Policy to learn more. By continuing to use the site, you agree to this use of cookies and data.
  • In Romania
  • List of Countries
  • For 7 days
  • Water Temperature
  • Satellite Maps
  • Weather Map
  • Weather Widgets
  • user-avatar
    Login

    Hourly Weather Pankow

    Today, 24 February, Sunday

    Time Temperature Precipitation Wind Pressure Humidity
    00:00 -1°C° 0 mm 1 mps 760 mmHg 36%
    01:00 -1°C° 0 mm 1 mps 760 mmHg 35%
    02:00 -1°C° 0 mm 1 mps 760 mmHg 34%
    03:00 0°C° 0 mm 1 mps 760 mmHg 33%
    04:00 -1°C° 0 mm 0 mps 759 mmHg 32%
    05:00 -1°C° 0 mm 0 mps 759 mmHg 32%
    06:00 0°C° 0 mm 0 mps 759 mmHg 31%
    07:00 0°C° 0 mm 0 mps 759 mmHg 31%
    08:00 +1°C° 0 mm 0 mps 759 mmHg 30%
    09:00 +3°C° 0 mm 1 mps 759 mmHg 29%
    10:00 +4°C° 0 mm 1 mps 759 mmHg 28%
    11:00 +5°C° 0 mm 1 mps 759 mmHg 28%
    12:00 +7°C° 0 mm 1 mps 759 mmHg 28%
    13:00 +7°C° 0 mm 2 mps 759 mmHg 28%
    14:00 +7°C° 0 mm 2 mps 758 mmHg 33%
    15:00 +6°C° 0 mm 2 mps 758 mmHg 39%
    16:00 +6°C° 0 mm 2 mps 758 mmHg 45%
    17:00 +5°C° 0 mm 2 mps 758 mmHg 48%
    18:00 +3°C° 0 mm 2 mps 758 mmHg 50%
    19:00 +2°C° 0 mm 2 mps 758 mmHg 53%
    20:00 +2°C° 0 mm 2 mps 758 mmHg 54%
    21:00 +2°C° 0 mm 2 mps 758 mmHg 55%
    22:00 +2°C° 0 mm 2 mps 758 mmHg 56%
    23:00 +2°C° 0 mm 2 mps 758 mmHg 57%

    Tomorrow, 25 February, Monday

    Time Temperature Precipitation Wind Pressure Humidity
    00:00 +2°C° 0 mm 2 mps 758 mmHg 58%
    01:00 +2°C° 0 mm 2 mps 758 mmHg 59%
    02:00 +2°C° 0 mm 2 mps 758 mmHg 60%
    03:00 +2°C° 0 mm 2 mps 758 mmHg 61%
    04:00 +2°C° 0 mm 2 mps 757 mmHg 62%
    05:00 +2°C° 0 mm 2 mps 757 mmHg 64%
    06:00 +1°C° 0 mm 2 mps 757 mmHg 65%
    07:00 +1°C° 0 mm 2 mps 757 mmHg 66%
    08:00 +2°C° 0 mm 3 mps 758 mmHg 61%
    09:00 +4°C° 0 mm 3 mps 758 mmHg 56%
    10:00 +5°C° 0 mm 4 mps 758 mmHg 52%
    11:00 +6°C° 0 mm 4 mps 758 mmHg 51%
    12:00 +7°C° 0 mm 4 mps 757 mmHg 51%
    13:00 +8°C° 0 mm 4 mps 757 mmHg 51%
    14:00 +8°C° 0 mm 4 mps 757 mmHg 54%
    15:00 +9°C° 0 mm 3 mps 756 mmHg 58%
    16:00 +9°C° 0 mm 3 mps 756 mmHg 61%
    17:00 +8°C° 0 mm 3 mps 756 mmHg 66%
    18:00 +5°C° 0 mm 3 mps 756 mmHg 70%
    19:00 +4°C° 0 mm 3 mps 756 mmHg 75%
    20:00 +3°C° 0 mm 3 mps 756 mmHg 76%
    21:00 +3°C° 0 mm 3 mps 756 mmHg 78%
    22:00 +2°C° 0 mm 3 mps 756 mmHg 80%
    23:00 +2°C° 0 mm 3 mps 756 mmHg 80%

    Day after tomorrow, 26 February, Tuesday

    Time Temperature Precipitation Wind Pressure Humidity
    00:00 +2°C° 0 mm 3 mps 756 mmHg 81%
    01:00 +2°C° 0 mm 3 mps 756 mmHg 81%
    02:00 +2°C° 0 mm 3 mps 755 mmHg 81%
    03:00 +2°C° 0 mm 3 mps 755 mmHg 81%
    04:00 +2°C° 0 mm 3 mps 755 mmHg 81%
    05:00 +2°C° 0 mm 3 mps 755 mmHg 81%
    06:00 +2°C° 0 mm 3 mps 754 mmHg 82%
    07:00 +2°C° 0 mm 3 mps 754 mmHg 83%
    08:00 +4°C° 0 mm 4 mps 754 mmHg 73%
    09:00 +5°C° 0 mm 5 mps 754 mmHg 63%
    10:00 +7°C° 0 mm 5 mps 754 mmHg 53%
    11:00 +8°C° 0 mm 6 mps 754 mmHg 51%
    12:00 +8°C° 0 mm 6 mps 753 mmHg 49%
    13:00 +9°C° 0 mm 6 mps 753 mmHg 48%
    14:00 +9°C° 0 mm 6 mps 753 mmHg 51%
    15:00 +9°C° 0 mm 6 mps 753 mmHg 53%
    16:00 +9°C° 0 mm 6 mps 753 mmHg 56%
    17:00 +8°C° 0 mm 5 mps 753 mmHg 61%
    18:00 +7°C° 0 mm 4 mps 753 mmHg 65%
    19:00 +6°C° 0 mm 4 mps 753 mmHg 69%
    20:00 +5°C° 0 mm 4 mps 753 mmHg 71%
    21:00 +5°C° 0 mm 3 mps 753 mmHg 74%
    22:00 +4°C° 0 mm 3 mps 753 mmHg 76%
    23:00 +4°C° 0 mm 3 mps 753 mmHg 78%

    27 February, Wednesday

    Time Temperature Precipitation Wind Pressure Humidity
    00:00 +4°C° 0 mm 3 mps 753 mmHg 80%
    01:00 +4°C° 0 mm 2 mps 753 mmHg 82%
    02:00 +4°C° 0 mm 2 mps 753 mmHg 83%
    03:00 +4°C° 0 mm 2 mps 753 mmHg 85%
    04:00 +4°C° 0 mm 2 mps 753 mmHg 86%
    05:00 +3°C° 0 mm 2 mps 753 mmHg 86%
    06:00 +3°C° 0 mm 2 mps 752 mmHg 86%
    07:00 +4°C° 0 mm 1 mps 752 mmHg 85%
    08:00 +5°C° 0 mm 2 mps 752 mmHg 76%
    09:00 +7°C° 0 mm 2 mps 752 mmHg 68%
    10:00 +9°C° 0 mm 2 mps 752 mmHg 59%
    11:00 +10°C° 0 mm 3 mps 752 mmHg 54%
    12:00 +12°C° 0 mm 3 mps 751 mmHg 49%
    13:00 +13°C° 0 mm 3 mps 751 mmHg 45%
    14:00 +13°C° 0 mm 3 mps 750 mmHg 46%
    15:00 +13°C° 0 mm 3 mps 750 mmHg 48%
    16:00 +14°C° 0 mm 2 mps 749 mmHg 49%
    17:00 +12°C° 0 mm 2 mps 749 mmHg 55%
    18:00 +10°C° 0 mm 2 mps 749 mmHg 60%
    19:00 +8°C° 0 mm 2 mps 749 mmHg 65%
    20:00 +8°C° 0 mm 2 mps 748 mmHg 65%
    21:00 +7°C° 0 mm 2 mps 748 mmHg 65%
    22:00 +7°C° 0 mm 2 mps 748 mmHg 64%
    23:00 +7°C° 0 mm 3 mps 748 mmHg 63%

    28 February, Thursday

    Time Temperature Precipitation Wind Pressure Humidity
    00:00 +7°C° 0 mm 3 mps 747 mmHg 62%
    01:00 +5°C° 0 mm 3 mps 747 mmHg 61%
    02:00 +5°C° 0 mm 3 mps 746 mmHg 61%
    03:00 +5°C° 0 mm 3 mps 746 mmHg 61%
    04:00 +5°C° 0 mm 3 mps 745 mmHg 61%
    05:00 +5°C° 0 mm 3 mps 745 mmHg 62%
    06:00 +5°C° 0 mm 3 mps 744 mmHg 62%
    07:00 +4°C° 0 mm 3 mps 744 mmHg 63%
    08:00 +6°C° 0 mm 4 mps 744 mmHg 59%
    09:00 +8°C° 0 mm 5 mps 744 mmHg 55%
    10:00 +10°C° 0 mm 6 mps 744 mmHg 52%
    11:00 +11°C° 0 mm 6 mps 743 mmHg 52%
    12:00 +12°C° 0 mm 7 mps 743 mmHg 53%
    13:00 +12°C° 0 mm 7 mps 743 mmHg 54%
    14:00 +12°C° 0 mm 7 mps 742 mmHg 56%
    15:00 +12°C° 0 mm 7 mps 742 mmHg 59%
    16:00 +11°C° 0 mm 6 mps 742 mmHg 62%
    17:00 +10°C° 0 mm 6 mps 742 mmHg 69%
    18:00 +9°C° 0 mm 5 mps 743 mmHg 76%
    19:00 +8°C° 0 mm 4 mps 743 mmHg 84%
    20:00 +7°C° 0 mm 4 mps 743 mmHg 86%
    21:00 +6°C° 0 mm 4 mps 743 mmHg 89%
    22:00 +6°C° 0 mm 4 mps 743 mmHg 91%
    23:00 +5°C° 0 mm 4 mps 744 mmHg 92%

    1 March, Friday

    Time Temperature Precipitation Wind Pressure Humidity
    00:00 +5°C° 0 mm 4 mps 744 mmHg 93%
    01:00 +4°C° 0 mm 3 mps 744 mmHg 95%
    02:00 +4°C° 0 mm 3 mps 744 mmHg 94%
    03:00 +4°C° 0 mm 4 mps 744 mmHg 93%
    04:00 +4°C° 0 mm 4 mps 744 mmHg 93%
    05:00 +4°C° 0 mm 4 mps 744 mmHg 93%
    06:00 +3°C° 0 mm 3 mps 744 mmHg 92%
    07:00 +3°C° 0 mm 3 mps 744 mmHg 92%
    08:00 +4°C° 0 mm 4 mps 745 mmHg 86%
    09:00 +5°C° 0 mm 4 mps 745 mmHg 80%
    10:00 +5°C° 0 mm 5 mps 745 mmHg 73%
    11:00 +6°C° 0 mm 5 mps 745 mmHg 69%
    12:00 +6°C° 0 mm 5 mps 745 mmHg 65%
    13:00 +7°C° 0 mm 5 mps 745 mmHg 60%
    14:00 +7°C° 0 mm 4 mps 745 mmHg 60%
    15:00 +7°C° 0 mm 4 mps 745 mmHg 59%
    16:00 +7°C° 0 mm 4 mps 745 mmHg 58%
    17:00 +7°C° 0 mm 3 mps 745 mmHg 63%
    18:00 +5°C° 0 mm 3 mps 745 mmHg 67%
    19:00 +5°C° 0 mm 2 mps 746 mmHg 71%
    20:00 +4°C° 0 mm 2 mps 746 mmHg 72%
    21:00 +4°C° 0 mm 2 mps 747 mmHg 74%
    22:00 +3°C° 0 mm 2 mps 747 mmHg 75%
    23:00 +3°C° 0 mm 2 mps 747 mmHg 77%
    Show more